EW9945 Weather Reports


time (UTC)temp
C
wind
direction
speed
KPH
gust
KPH
rain 1hr
cm
rain 24hr
cm
rain mn
cm
humidity
%
barometer
mb
20260503204555 12 306 12.9 32.2 0.00 0.00 0.00 37 1011.4
20260503203056 12 312 14.5 24.1 0.00 0.00 0.00 37 1011.5
20260503201552 12 322 11.3 22.5 0.00 0.00 0.00 38 1011.4
20260503200054 12 297 16.1 27.4 0.00 0.00 0.00 38 1011.6
20260503194555 12 299 6.4 20.9 0.00 0.00 0.00 41 1012.0
20260503193044 11 312 16.1 25.7 0.00 0.00 0.00 40 1012.3
20260503191544 11 315 12.9 29.0 0.00 0.00 0.00 40 1012.4
20260503190043 12 306 12.9 25.7 0.00 0.00 0.00 40 1012.5
20260503184541 11 304 12.9 30.6 0.00 0.00 0.00 38 1012.5
20260503183038 12 338 9.7 30.6 0.00 0.00 0.00 40 1012.6
20260503181536 11 306 12.9 22.5 0.00 0.00 0.00 40 1012.7
20260503180035 11 301 16.1 25.7 0.00 0.00 0.00 39 1013.0
20260503174534 11 336 12.9 22.5 0.00 0.00 0.00 41 1013.0
20260503173037 11 340 16.1 33.8 0.00 0.00 0.00 39 1013.0
20260503171535 10 307 11.3 25.7 0.00 0.00 0.00 39 1013.1
20260503081525 2 313 0.0 6.4 0.00 0.00 0.00 76 1014.2
20260503071522 2 298 3.2 9.7 0.00 0.00 0.00 75 1014.0
20260503054512 2 318 0.0 0.0 0.00 0.00 0.00 73 1014.3
20260503053012 2 318 0.0 6.4 0.00 0.00 0.00 73 1014.3
20260503051511 3 318 0.0 0.0 0.00 0.00 0.00 73 1014.5
20260503050022 3 318 0.0 0.0 0.00 0.00 0.00 73 1014.6
20260503044517 3 318 0.0 0.0 0.00 0.00 0.00 71 1014.6
20260503043012 3 318 0.0 0.0 0.00 0.00 0.00 73 1014.7
20260503041512 3 318 0.0 0.0 0.00 0.00 0.00 73 1014.8
20260503040011 3 318 0.0 0.0 0.00 0.00 0.00 71 1014.9
20260503034511 3 318 0.0 0.0 0.00 0.00 0.00 70 1014.9
20260503033010 3 321 6.4 11.3 0.00 0.00 0.00 69 1014.8
20260503031510 3 304 4.8 12.9 0.00 0.00 0.00 69 1014.8
20260503030009 3 349 4.8 12.9 0.00 0.00 0.00 69 1014.9
20260503024508 3 349 4.8 9.7 0.00 0.00 0.00 68 1015.0
20260503023008 3 349 6.4 11.3 0.00 0.00 0.00 67 1015.0
20260503021518 4 346 4.8 12.9 0.00 0.00 0.00 66 1015.0
20260503020008 4 342 9.7 16.1 0.00 0.00 0.00 64 1014.9
20260503014507 5 355 4.8 12.9 0.00 0.00 0.00 62 1014.9
20260503013008 5 317 8.0 17.7 0.00 0.00 0.00 57 1014.8
20260503011508 5 298 8.0 14.5 0.00 0.00 0.00 55 1014.6
20260503010007 5 326 8.0 19.3 0.00 0.23 0.00 54 1014.4
20260503004505 5 323 9.7 16.1 0.00 0.23 0.00 54 1014.2
20260503003005 5 326 0.0 1.6 0.00 0.23 0.00 55 1014.1
20260503001511 5 326 0.0 0.0 0.00 0.23 0.00 55 1014.0
20260503000006 6 326 1.6 9.7 0.00 0.33 0.00 54 1014.0
20260502234505 6 309 8.0 14.5 0.00 0.33 0.00 54 1013.8
20260502233005 6 310 9.7 14.5 0.00 0.33 0.00 54 1013.7
20260502231505 6 303 3.2 12.9 0.00 0.33 0.00 55 1013.6
20260502230012 6 341 0.0 14.5 0.00 0.36 0.00 56 1013.5
20260502224506 6 348 6.4 14.5 0.00 0.36 0.00 55 1013.4
20260502223004 7 342 8.0 16.1 0.00 0.36 0.00 56 1013.3
20260502221503 7 336 4.8 8.0 0.00 0.36 0.00 55 1013.4
20260502220004 7 336 0.0 8.0 0.00 0.38 0.00 57 1013.5
20260502214504 7 313 4.8 9.7 0.00 0.38 0.00 56 1013.4
20260502213003 7 336 1.6 9.7 0.00 0.38 0.00 55 1013.4
20260502211507 7 335 4.8 14.5 0.00 0.38 0.00 56 1013.3
20260502210005 6 306 8.0 17.7 0.00 0.46 0.00 57 1013.2